Location: ?????? ??????
(44.3742°N, 135.2221°E)
Time: 03:07:40
(UTC+00:00)

IDEFIX/ARIANE 42P - Pass Details

Date: 19 May 2025
Orbit: 781 x 796 km, 98.6° (Epoch: 14 June)

Event Time Altitude Azimuth Distance (km) Brightness Sun altitude
Rises 18:07:35 0° 360° (N) 3,308 6.5 -12.2°
Reaches altitude 10° 18:10:31 10° 343° (NNW) 2,375 5.4 -11.8°
Maximum altitude 18:14:07 19° 300° (WNW) 1,819 4.3 -11.4°
Enters shadow 18:17:38 10° 257° (WSW) 2,349 4.5 -10.9°
